Location: Gajan
(43.0218°N, 1.1244°E)
Time: 15:39:14
(UTC+00:00)

Meteor 2-2 Rocket - Pass Details

Date: 22 April 2021
Orbit: 852 x 929 km, 81.3° (Epoch: 12 May)

Event Time Altitude Azimuth Distance (km) Brightness Sun altitude
Exits shadow 21:15:40 50° 103° (ESE) 1,100 4.4 -23.7°
Maximum altitude 21:15:55 51° 94° (E) 1,095 4.4 -23.8°
Drops below altitude 10° 21:21:25 10° 20° (NNE) 2,515 7.0 -24.4°
Sets 21:23:53 0° 16° (NNE) 3,448 7.8 -24.7°
